563  
NZUS59 KLOT 182109  
HRRLOT  
 
CHICAGO AREA WEATHER ROUNDUP  
NATIONAL WEATHER SERVICE CHICAGO/ROMEOVILLE IL  
400 PM CDT THU JUL 18 2019  
 
NOTE: "FAIR" INDICATES FEW OR NO CLOUDS BELOW 12,000 FEET WITH NO  
SIGNIFICANT WEATHER AND/OR OBSTRUCTIONS TO VISIBILITY.  
 
* THESE STATIONS ARE NOT UNDER NWS QUALITY CONTROL. THEY ALSO MAY NOT  
REPORT WEATHER SUCH AS PRECIPITATION OR FOG.  
 
ILZ005-006-012>014-019>023-182200-  
NORTHEAST ILLINOIS  
 
CITY SKY/WX TMP DP RH WIND PRES REMARKS  
OHARE N/A 84 73 69 S21G35 29.76F HX 90  
MIDWAY N/A 84 74 71 SW15G32 29.77F HX 91  
AURORA N/A 84 75 74 S20G28 29.78F HX 92  
LANSING* N/A 83 76 81 S17 29.81F HX 91  
JOLIET* N/A 86 80 81 S14G22 29.80F HX 101  
WAUKEGAN N/A 85 72 65 SW18G29 29.75S HX 91  
DUPAGE AIRPORT N/A 85 74 69 S15G30 29.78S HX 92  
WHEELING N/A 86 71 60 S20G35 29.78S HX 91  
KANKAKEE* N/A 85 76 74 S12G17 29.83F HX 95  
MORRIS* N/A 85 79 81 S18 29.78F HX 97  
LEWIS AIRPORT* N/A 83 76 79 S21G26 29.79F HX 92  
NORTHERLY ISL N/A 82 69 64 S21 N/A HX 85  
NORTHERLY IS NOT AVBL  
NORTHERLY ISL N/A 82 69 64 S21 N/A HX 85  

 
 
WIZ051-052-058>065-066-070>072-182200-  
SOUTHEAST WISCONSIN  
 
CITY SKY/WX TMP DP RH WIND PRES REMARKS  
MILWAUKEE N/A 87 72 60 SW21G28 29.74S HX 93  
KENOSHA* N/A 86 74 67 SW16 29.77R HX 94  
RACINE* N/A 85 72 65 SW16G31 29.76F HX 91  
BURLINGTON N/A 80 74 80 SW17G25 29.78R HX 85  
WAUKESHA SUNNY 82 72 69 SW16G23 29.78R HX 87  

 
 
INZ001>003-010>013-019-020-182200-  
NORTHWEST INDIANA  
 
CITY SKY/WX TMP DP RH WIND PRES REMARKS  
GARY* MOSUNNY 84 73 70 S12G23 29.80F HX 91  
MICHIGAN CITY* NOT AVBL  
RENSSELAER* NOT AVBL  
VALPARAISO N/A 85 73 67 S15G25 29.81F HX 91  

 
 
LMZ740>746-182200-  
SOUTHERN LAKE MICHIGAN  
 
STATION/POSITION TIME SKY/WX TEMP WIND PRES VSBY  
AIR DIR/SP/G  
(UTC) (F) (DEG/KT/KT) (MB) (MI)  
HARRISON CRIB 2010 78 180/ 25/ 27 N/A  
NORTHERLY ISL 2100 82 200/ 17/ 23 N/A  
CALUMET HARBOR 2030 81 180/ 17/ 22 1008.0F  
BURNS HARBOR 2040 82 190/ 9/ 15 1008.8F  
MICHIGAN CITY 2040 81 180/ 19/ 24 N/A  

 
 
ABBREVIATIONS USED IN REMARKS  
TC - TEMPERATURE IN CELSIUS  
WCI - WIND CHILL INDEX  
HX - HEAT INDEX  
VSB - VISIBILITY  

 
 
 
CLICK HERE TO GO TO PREVIOUS BULLETINS.

The Nexlab IL Page
The Nexlab IN Page Main Text Page